Location: Dumpton Point
(51.3500°N, 1.4433°E)
Time: 16:01:27
(UTC+00:00)

X-37B - Pass Details

Date: 12 March 2021
Orbit: 380 x 394 km, 45.0° (Epoch: 07 April)

Event Time Altitude Azimuth Distance (km) Brightness Sun altitude
Rises 19:52:31 0° 225° (SW) 2,269 4.8 -19.0°
Reaches altitude 10° 19:55:02 10° 204° (SSW) 1,420 3.5 -19.4°
Enters shadow 19:55:24 12° 199° (SSW) 1,322 3.2 -19.4°
